Location: Albuquerque Trailhead
(34.7934°N, 106.3736°W)
Time: 01:06:46
(UTC+00:00)

Meteor 1-16 Rocket - Pass Details

Date: 20 June 2021
Orbit: 790 x 908 km, 81.2° (Epoch: 27 July)

Event Time Altitude Azimuth Distance (km) Brightness Sun altitude
Rises 04:02:39 0° 354° (N) 3,351 8.2 -17.2°
Reaches altitude 10° 04:05:05 10° 357° (N) 2,401 7.3 -17.5°
Maximum altitude 04:10:28 68° 81° (E) 855 4.1 -18.3°
Enters shadow 04:12:52 33° 155° (SSE) 1,314 4.7 -18.6°
